Wind_Speed
15 14 13 13 12 12 12 11 11 11 10 10 10 10 10 9 9 9 9 8 7 6 5 3 3 3 4 6 7 8 8 9 9 10 11 11 12 12 12 12 12 10
16 15 14 13 13 12 12 12 12 12 12 11 11 11 11 10 10 10 9 8 7 6 4 3 2 3 4 5 7 8 8 9 9 10 11 11 12 12 12 12 12 11
17 16 15 14 14 13 13 14 13 13 13 12 12 12 12 12 11 10 10 8 7 6 4 3 2 3 4 5 7 8 8 8 9 9 10 11 11 12 12 12 12 12
19 17 16 16 15 14 14 14 14 14 14 14 14 14 13 13 12 12 11 9 8 6 5 3 3 3 4 6 7 7 7 7 8 9 9 10 10 11 11 11 11 11
22 19 18 17 16 15 14 14 14 14 15 15 16 15 15 14 14 13 12 11 9 7 6 5 4 4 5 6 6 6 6 7 7 7 8 9 9 10 10 10 10 10
23 21 19 18 17 15 14 14 14 14 15 16 16 17 17 16 16 15 13 12 10 8 7 7 6 6 6 6 6 5 5 6 6 6 7 8 8 9 9 9 9 9
24 23 21 20 18 17 15 15 14 14 15 16 16 17 17 17 17 16 15 13 11 10 9 8 8 7 6 6 6 5 4 5 5 5 5 7 7 8 8 9 8 8
25 25 24 21 20 18 17 16 15 15 15 15 15 16 17 17 17 17 15 14 12 11 10 10 9 8 7 7 6 5 4 4 3 3 4 5 6 7 7 8 8 7
27 26 25 23 21 19 18 17 16 15 15 15 16 16 16 17 17 17 15 14 12 11 11 10 10 9 8 7 6 5 4 3 3 2 2 3 5 6 6 7 7 7
27 26 25 24 22 20 19 18 18 16 15 16 16 17 17 17 17 17 15 14 12 11 11 11 10 10 9 8 6 6 5 4 3 2 0 2 4 5 5 6 6 6
27 26 25 23 22 22 21 21 20 18 17 16 16 17 18 18 18 17 16 15 14 13 12 12 11 11 11 9 8 7 6 5 4 3 2 1 3 4 5 5 6 6
27 25 24 23 23 23 23 23 22 21 19 17 17 17 18 18 18 18 17 17 16 15 14 14 13 13 13 11 9 8 7 7 7 5 4 3 2 3 4 5 5 5
26 25 24 23 23 24 24 24 23 23 21 20 18 18 17 17 18 18 19 18 18 17 16 15 14 14 13 12 11 10 9 9 9 8 7 5 4 3 4 5 6 6
24 24 24 23 23 24 24 24 24 23 23 22 21 19 18 18 18 19 19 19 19 18 17 16 14 13 13 13 12 12 12 11 10 10 9 8 6 5 4 5 6 7
25 24 23 22 21 22 22 23 23 23 24 24 23 21 20 19 20 20 20 20 20 19 18 16 14 14 14 14 14 14 14 13 12 11 10 10 9 7 6 6 6 7
25 24 22 21 19 19 19 20 22 23 23 24 24 23 23 22 22 21 21 20 20 20 19 17 15 15 15 15 15 15 15 15 14 13 12 11 11 10 9 8 7 8
23 23 22 20 18 17 17 17 19 21 22 23 23 24 24 24 24 23 22 22 21 20 19 18 17 17 17 16 16 16 16 16 16 15 13 13 13 12 11 9 8 9
21 22 22 20 18 17 16 16 17 18 19 20 22 23 24 25 25 24 24 24 23 21 20 19 18 18 18 18 17 17 17 16 16 16 15 14 14 14 13 12 10 10
20 21 21 20 19 18 17 15 15 15 16 17 19 21 23 24 24 24 25 25 24 23 21 20 19 19 19 19 18 18 18 17 17 17 17 16 15 15 15 15 13 12
19 19 20 21 20 19 18 16 14 14 14 15 16 18 19 21 22 24 24 25 25 25 23 22 21 20 19 20 20 20 19 19 19 18 18 17 17 17 17 17 16 15
19 19 19 19 20 19 18 17 16 15 15 15 15 15 16 18 20 22 23 24 25 26 26 25 23 22 21 21 21 21 20 20 19 19 19 19 19 19 19 19 18 17
18 18 17 18 18 18 18 18 17 17 17 17 17 16 17 18 19 20 21 23 24 25 26 26 25 24 23 22 23 23 22 20 20 20 20 20 21 21 21 21 20 19
17 17 17 17 17 16 16 16 17 18 19 19 19 19 18 18 19 19 21 22 23 23 24 25 25 26 25 25 25 25 23 21 20 20 20 21 22 22 22 22 22 21
19 18 17 17 16 16 16 16 16 17 18 19 20 20 20 21 21 21 21 21 22 22 22 23 24 25 26 26 26 26 24 23 22 21 20 21 22 23 23 23 23 23
23 22 19 18 17 17 17 16 16 17 18 19 20 21 21 22 22 22 22 22 21 21 22 23 23 24 25 25 25 25 25 24 24 22 21 20 22 23 24 24 23 24
25 24 22 21 20 19 19 18 18 18 18 19 19 21 22 23 23 23 23 22 22 22 22 22 22 22 23 24 24 24 24 24 24 23 22 21 22 24 25 24 24 25
Wind_Direction
197 191 192 193 192 190 185 184 182 181 184 187 187 187 188 188 185 182 179 173 164 153 145 133 105 86 77 78 86 91 92 91 89 88 84 81 81 81 80 77 74 72
201 194 193 196 196 193 188 188 185 180 181 185 186 186 187 189 189 187 184 179 171 164 157 146 122 98 91 93 100 104 102 99 96 92 88 85 83 82 81 80 79 76
205 198 195 197 199 198 194 192 189 183 181 182 184 187 189 190 191 190 188 186 182 179 175 165 150 127 116 117 118 116 112 108 102 95 89 86 83 82 82 81 80 79
208 203 198 199 201 203 201 198 195 189 183 181 184 188 192 192 193 194 192 192 192 190 186 182 173 156 140 136 134 128 120 113 105 96 88 84 81 80 81 81 80 79
209 208 203 201 202 205 206 204 203 199 191 186 187 190 194 196 197 198 198 197 197 196 194 192 188 178 163 153 148 138 125 114 105 93 85 80 75 74 76 78 79 79
208 210 208 205 204 205 206 207 209 207 202 195 192 194 197 200 201 201 202 203 202 201 200 198 195 190 180 170 164 152 131 116 104 89 79 74 69 66 67 68 72 76
207 209 211 209 208 207 208 210 210 211 211 208 202 201 202 205 207 206 206 208 207 206 205 203 201 198 192 183 179 169 146 124 107 86 70 65 62 58 56 56 59 66
208 209 210 209 208 208 210 213 213 211 213 214 214 212 211 212 215 213 212 213 212 211 209 208 206 205 203 197 192 186 168 142 119 90 62 52 50 48 45 45 47 53
211 210 211 210 209 209 212 215 217 216 213 214 218 220 220 222 225 224 222 220 219 218 216 215 213 214 215 210 203 201 195 176 149 114 60 36 33 33 32 33 35 38
214 212 212 211 210 210 213 216 220 221 218 216 217 221 223 225 229 232 232 231 230 228 225 223 222 224 226 222 216 215 219 214 199 185 127 18 12 13 16 19 22 22
214 213 212 213 212 212 214 217 220 222 223 221 221 223 225 227 229 234 236 236 236 234 232 230 229 231 233 232 226 224 232 241 240 231 231 305 341 350 356 0 5 6
213 212 211 212 213 214 214 217 220 222 223 224 225 227 230 232 232 235 237 238 238 237 235 234 232 233 236 238 236 232 234 246 256 257 250 255 290 323 333 336 343 349
214 212 210 210 212 214 215 217 220 223 224 225 226 228 232 236 237 238 240 241 242 241 240 239 237 237 240 243 247 246 243 245 253 259 259 255 263 289 311 316 317 324
216 211 210 210 211 213 215 217 219 222 225 227 227 227 230 236 240 242 242 243 245 245 246 246 245 244 246 248 250 252 253 251 251 256 260 260 264 276 292 299 298 302
218 212 209 209 211 213 216 218 219 222 225 228 229 228 229 232 238 243 245 246 246 247 247 248 248 247 247 247 248 250 253 255 254 255 258 259 263 272 282 289 288 289
220 213 209 208 208 210 215 218 220 222 225 228 229 229 229 230 234 240 245 247 248 248 248 248 247 246 244 245 246 247 249 253 254 254 255 258 261 265 271 279 282 282
219 214 209 206 205 207 210 216 220 222 224 227 229 230 230 230 231 235 241 246 248 248 248 247 246 246 246 244 244 245 245 249 252 253 253 255 258 262 264 268 273 275
215 211 207 204 203 204 206 211 218 222 225 228 232 233 232 232 231 232 236 242 247 248 249 248 247 247 248 248 246 245 244 246 250 253 253 252 253 258 262 264 265 267
209 206 204 202 202 203 204 206 212 220 225 228 231 235 236 235 235 234 235 239 245 248 248 249 248 248 250 251 249 248 246 245 246 250 253 253 251 251 256 260 262 263
202 201 200 200 201 203 203 204 207 213 221 225 228 234 238 238 237 236 236 237 241 245 246 247 249 249 250 252 252 251 249 246 246 248 251 253 252 250 250 254 257 259
197 198 199 199 201 203 203 205 207 210 217 222 225 228 233 236 236 236 236 236 238 241 244 246 247 249 250 252 253 254 252 249 248 247 249 251 252 250 249 250 254 257
206 200 201 200 200 203 205 207 210 212 216 220 223 224 228 234 236 236 236 236 236 238 241 244 246 248 249 250 252 254 254 253 251 249 248 249 250 251 250 250 252 256
224 211 206 203 200 200 203 208 212 215 218 220 222 224 225 230 234 234 234 235 235 235 238 241 244 246 248 249 251 253 255 255 253 251 249 248 249 249 249 250 251 254
233 223 214 209 203 197 198 205 211 216 219 221 223 226 226 228 231 234 234 235 236 236 236 238 241 244 247 249 251 253 254 255 254 253 252 250 248 247 247 247 249 253
230 227 220 214 209 202 200 204 209 216 221 223 224 227 229 230 232 234 235 235 236 237 237 237 239 242 247 250 252 253 254 254 254 254 253 250 246 244 244 244 246 250
224 227 223 217 213 210 208 208 210 216 222 224 226 227 230 232 234 235 236 236 236 236 237 238 239 240 244 248 251 252 252 252 252 252 252 250 244 242 242 243 244 247
Height
5941 5943 5945 5946 5947 5949 5950 5952 5953 5954 5956 5957 5958 5959 5960 5961 5961 5962 5963 5963 5964 5965 5966 5966 5967 5967 5967 5968 5969 5969 5969 5970 5970 5971 5971 5971 5971 5971 5971 5971 5971 5971
5940 5942 5944 5945 5947 5948 5950 5951 5952 5954 5955 5957 5958 5959 5960 5960 5961 5962 5963 5964 5964 5965 5966 5966 5967 5967 5968 5968 5969 5970 5970 5970 5971 5971 5971 5971 5971 5972 5972 5972 5971 5971
5939 5941 5943 5945 5946 5947 5949 5950 5952 5953 5955 5956 5958 5959 5960 5960 5961 5962 5963 5964 5965 5965 5966 5966 5967 5967 5968 5968 5969 5970 5970 5971 5971 5972 5972 5972 5972 5972 5972 5972 5972 5972
5937 5940 5942 5944 5945 5947 5948 5950 5951 5953 5954 5956 5957 5958 5959 5960 5961 5961 5962 5963 5964 5965 5966 5966 5967 5967 5968 5968 5969 5970 5971 5971 5972 5972 5972 5972 5972 5973 5973 5973 5973 5972
5935 5938 5940 5942 5944 5946 5947 5949 5951 5952 5953 5955 5956 5957 5959 5959 5960 5961 5962 5963 5964 5965 5965 5966 5966 5967 5968 5968 5969 5970 5971 5971 5972 5973 5973 5973 5973 5973 5973 5973 5973 5973
5934 5936 5939 5941 5943 5945 5946 5948 5950 5951 5953 5954 5955 5956 5958 5959 5959 5960 5961 5962 5963 5964 5965 5965 5966 5967 5967 5968 5969 5970 5971 5971 5972 5973 5973 5973 5974 5974 5974 5974 5974 5974
5932 5934 5937 5939 5941 5943 5945 5947 5948 5950 5952 5953 5955 5956 5957 5958 5958 5959 5960 5961 5962 5963 5964 5965 5966 5966 5967 5968 5969 5970 5970 5971 5972 5972 5973 5973 5974 5974 5974 5974 5974 5974
5930 5932 5934 5937 5939 5942 5944 5945 5947 5949 5951 5952 5954 5955 5956 5957 5958 5959 5960 5961 5962 5963 5963 5964 5965 5966 5967 5968 5968 5969 5970 5971 5972 5972 5973 5973 5974 5974 5974 5974 5974 5974
5928 5930 5932 5935 5937 5940 5942 5944 5946 5948 5949 5951 5953 5954 5956 5957 5958 5958 5959 5961 5962 5963 5963 5964 5965 5966 5967 5968 5968 5969 5970 5971 5972 5972 5973 5973 5974 5974 5974 5974 5974 5974
5926 5928 5930 5933 5936 5938 5941 5943 5944 5946 5948 5950 5951 5953 5954 5956 5957 5958 5959 5960 5961 5962 5963 5964 5965 5965 5966 5967 5968 5969 5969 5970 5971 5972 5972 5973 5973 5974 5974 5974 5974 5974
5924 5926 5928 5931 5933 5936 5938 5940 5942 5944 5946 5948 5950 5951 5953 5954 5955 5957 5958 5959 5960 5961 5962 5963 5964 5965 5965 5966 5967 5968 5969 5969 5970 5971 5972 5972 5973 5973 5973 5974 5974 5974
5923 5924 5926 5929 5931 5933 5936 5938 5940 5942 5944 5947 5948 5950 5951 5952 5954 5955 5957 5958 5959 5960 5961 5962 5963 5964 5964 5965 5966 5967 5968 5968 5969 5970 5971 5972 5972 5973 5973 5973 5973 5973
5921 5922 5924 5926 5928 5930 5933 5935 5938 5940 5942 5944 5946 5948 5950 5951 5952 5954 5955 5956 5957 5959 5960 5961 5962 5963 5964 5964 5965 5966 5967 5968 5968 5969 5970 5971 5971 5972 5972 5972 5972 5972
5919 5920 5921 5923 5925 5928 5930 5933 5935 5938 5940 5942 5944 5946 5948 5950 5951 5952 5953 5954 5956 5957 5958 5960 5961 5962 5963 5964 5964 5965 5965 5966 5967 5968 5969 5969 5970 5971 5971 5971 5971 5971
5917 5917 5919 5920 5923 5925 5928 5930 5933 5935 5937 5939 5942 5944 5946 5948 5949 5950 5951 5952 5953 5955 5956 5958 5959 5961 5961 5962 5963 5963 5964 5965 5966 5967 5967 5968 5969 5969 5970 5970 5970 5970
5915 5916 5916 5918 5920 5923 5925 5928 5930 5932 5934 5937 5939 5941 5943 5945 5946 5947 5949 5950 5951 5952 5954 5956 5957 5958 5959 5960 5961 5962 5962 5963 5964 5965 5966 5966 5967 5967 5968 5969 5969 5969
5913 5914 5915 5916 5918 5920 5923 5925 5927 5929 5932 5934 5936 5938 5940 5942 5944 5945 5946 5947 5949 5950 5951 5953 5954 5955 5956 5957 5958 5959 5960 5961 5962 5963 5964 5964 5965 5965 5966 5967 5967 5967
5909 5911 5912 5913 5915 5917 5920 5922 5924 5927 5929 5931 5933 5935 5937 5939 5941 5943 5944 5945 5946 5947 5949 5950 5951 5952 5953 5954 5955 5956 5958 5959 5960 5960 5961 5962 5963 5963 5964 5964 5965 5965
5906 5907 5909 5910 5912 5915 5917 5920 5922 5925 5927 5929 5931 5932 5934 5936 5938 5940 5942 5943 5943 5945 5946 5947 5948 5949 5950 5951 5952 5954 5955 5956 5957 5958 5959 5960 5960 5961 5961 5962 5962 5963
5902 5904 5906 5907 5909 5911 5914 5917 5920 5922 5924 5926 5928 5929 5931 5933 5935 5936 5938 5940 5941 5942 5943 5945 5946 5947 5947 5948 5949 5950 5952 5953 5955 5955 5956 5957 5957 5958 5959 5959 5959 5960
5900 5902 5903 5904 5906 5909 5911 5914 5917 5919 5921 5923 5925 5927 5928 5929 5931 5933 5935 5937 5938 5939 5940 5942 5943 5944 5945 5946 5946 5947 5949 5950 5951 5952 5953 5954 5954 5955 5955 5956 5956 5957
5901 5900 5901 5902 5904 5906 5909 5911 5914 5916 5918 5920 5922 5924 5925 5926 5928 5930 5931 5933 5935 5936 5937 5938 5939 5941 5942 5943 5943 5944 5945 5947 5948 5949 5950 5951 5951 5952 5952 5953 5954 5954
5901 5900 5901 5901 5902 5904 5906 5908 5911 5913 5915 5917 5919 5920 5922 5923 5925 5926 5927 5929 5931 5932 5934 5935 5936 5937 5938 5939 5940 5940 5942 5943 5945 5946 5947 5947 5948 5949 5949 5950 5950 5951
5898 5899 5900 5900 5901 5902 5904 5905 5908 5910 5912 5914 5916 5917 5919 5920 5921 5922 5924 5925 5927 5929 5930 5931 5932 5933 5934 5935 5936 5937 5938 5940 5941 5942 5943 5944 5945 5945 5946 5946 5947 5947
5895 5896 5898 5899 5899 5900 5901 5903 5905 5906 5908 5910 5912 5914 5915 5917 5918 5919 5921 5922 5924 5925 5927 5928 5929 5930 5930 5931 5932 5933 5935 5936 5937 5939 5940 5941 5942 5942 5942 5943 5944 5944
5892 5893 5894 5895 5896 5897 5898 5900 5901 5903 5905 5907 5909 5910 5912 5913 5915 5916 5917 5919 5920 5921 5923 5924 5925 5927 5927 5928 5928 5929 5931 5932 5933 5935 5936 5937 5938 5939 5939 5940 5941 5941